Weather in Vertunovka

Russia / Penza Oblast     52°27′01″N   43°35′22″E
temp.,
°C
wind,
m/s
gust,
m/s
humid.,
%
clouds,
%
prec.,
mm/h
press.,
hPa
HPBL,
m
22 june, tue
tue2200:00+21e227599 0.0 102218
03:00+20e227889 0.0 102220
06:00+22e258177 0.0 1022132
09:00+27e346422 0.0 1022498
12:00+30ese33480 0.0 10211835
15:00+31e33430 0.0 10202073
18:00+30e23595 0.0 1020114
21:00+24e22650 0.0 102011
23 june, wed
wed2300:00+22ene33720 0.0 102121
03:00+20e23830 0.0 102124
06:00+22e24780 0.0 1021119
09:00+27ene33600 0.0 1021449
12:00+30e22490 0.0 10201108
15:00+31ne21440 0.0 10201723
18:00+31n11560 0.0 10191234
21:00+24ne34750 0.0 102050
24 june, thu
thu2400:00+22ene22770 0.0 102020
03:00+20nne22773 0.0 102017
06:00+23ne12762 0.0 102079
09:00+27nne34634 0.0 1020607
12:00+29ne34510 0.0 10201628
15:00+30ne34480 0.0 10191869
18:00+29ene24620 0.0 1018291
21:00+24ne11690 0.0 101811
25 june, fri
fri2500:00+23nne22734 0.0 101712
03:00+21n22835 0.0 101817
06:00+23ne248052 0.0 1018117
09:00+27ene3464100 0.0 1017609
12:00+30ne1254100 0.0 10171093
15:00+31ne3350100 0.0 10161701
18:00+29e126496 0.0 1015481
21:00+25ese11751 0.2 101411
26 june, sat
sat2600:00+21nne228994 0.8 101519
03:00+20nne228671 0.8 101514
06:00+22ne237695 0.2 101469
09:00+26n2263100 0.2 1014356
12:00+29nnw235684 0.0 1014995
15:00+30nne2252100 0.0 10131511
18:00+29sw016674 0.1 1012236
21:00+23nnw228169 1.2 101223